Weather History for Shreveport, LA

Change the Weather History Date:

Thursday, July 18, 2013

  Actual Average Record
Temperature  
Mean Temperature 85 °F 83 °F  
Max Temperature 98 °F 94 °F 106 °F (1875)
Min Temperature 72 °F 73 °F 66 °F (1991)
Degree Days  
Heating Degree Days 0 0  
Month to date heating degree days 0 0  
Since 1 June heating degree days 0 0  
Since 1 July heating degree days 0 0  
Cooling Degree Days 20 18  
Month to date cooling degree days 297 319  
Year to date cooling degree days 1182 1161  
Since 1 June cooling degree days 795 763  
Growing Degree Days 35 (Base 50)    
Moisture  
Dew Point 70 °F    
Average Humidity 66    
Maximum Humidity 93    
Minimum Humidity 38    
Precipitation  
Precipitation 0.53 in 0.12 in 2.83 in (1882)
Month to date precipitation 0.82 2.28  
Year to date precipitation 25.42 29.89  
Snow  
Snow 0.00 in - - ()
Month to date snowfall 0.0  
Since 1 June snowfall 0.0  
Since 1 July snowfall 0.0  
Snow Depth 0.00 in    
Sea Level Pressure  
Sea Level Pressure 30.09 in    
Wind  
Wind Speed 3 mph (SE)    
Max Wind Speed 20 mph    
Max Gust Speed 107 mph    
Visibility 9 miles    
Events Rain , Thunderstorm    
T = Trace of Precipitation, MM = Missing Value Source: NWS Daily Summary

Daily Weather History Graph

Daily Weather History Graph

Search for Another Location

Airport:

Trip Planner

Search our weather history database for the weather conditions in past years. The results will help you decide how hot, cold, wet, or windy it might be!

Date:

Astronomy

Jul. 18, 2013 Rise Set
Actual Time 6:20 AM CDT 8:21 PM CDT
Civil Twilight 5:53 AM CDT 8:49 PM CDT
Nautical Twilight 5:19 AM CDT 9:23 PM CDT
Astronomical Twilight 4:43 AM CDT 9:58 PM CDT
Moon 4:21 PM CDT (7/18) 2:08 AM CDT (7/18)
Length of Visible Light 14h 56m
Length of Day
14h 01m
Waxing Gibbous, 77% of the Moon is Illuminated
Jul 18
Waxing Gibbous
Jul 22
Full
Jul 29
Last Quarter
Aug 6
New
Aug 14
First Quarter

Hourly Weather History & Observations

Time (CDT) Temp. Heat Index Dew Point Humidity Pressure Visibility Wind Dir Wind Speed Gust Speed Precip Events Conditions
12:56 AM 77.0 °F - 70.0 °F 79% 30.14 in 10.0 mi Calm Calm - N/A   Clear
1:56 AM 79.0 °F - 70.0 °F 74% 30.15 in 10.0 mi Calm Calm - N/A   Clear
2:56 AM 73.9 °F - 69.1 °F 85% 30.14 in 10.0 mi Calm Calm - N/A   Clear
3:56 AM 75.0 °F - 70.0 °F 84% 30.12 in 10.0 mi Calm Calm - N/A   Clear
4:56 AM 73.9 °F - 70.0 °F 87% 30.12 in 10.0 mi Calm Calm - N/A   Partly Cloudy
5:56 AM 73.0 °F - 70.0 °F 90% 30.13 in 10.0 mi Calm Calm - N/A   Partly Cloudy
6:56 AM 72.0 °F - 70.0 °F 93% 30.14 in 10.0 mi Calm Calm - N/A   Scattered Clouds
7:56 AM 81.0 °F 85.2 °F 72.0 °F 74% 30.14 in 10.0 mi Calm Calm - N/A   Scattered Clouds
8:56 AM 84.9 °F 91.4 °F 73.0 °F 67% 30.15 in 10.0 mi NNE 3.5 mph - N/A   Mostly Cloudy
9:56 AM 89.1 °F 95.0 °F 71.1 °F 55% 30.15 in 10.0 mi Calm Calm - N/A   Scattered Clouds
10:56 AM 91.0 °F 97.6 °F 71.1 °F 52% 30.15 in 10.0 mi SSE 4.6 mph - N/A   Mostly Cloudy
11:56 AM 93.0 °F 99.0 °F 70.0 °F 47% 30.14 in 10.0 mi Calm Calm - N/A   Mostly Cloudy
12:56 PM 95.0 °F 101.3 °F 70.0 °F 44% 30.12 in 10.0 mi NNE 4.6 mph - N/A   Mostly Cloudy
1:56 PM 91.9 °F 96.9 °F 69.1 °F 47% 30.08 in 10.0 mi North 3.5 mph - N/A   Scattered Clouds
2:56 PM 91.9 °F 96.9 °F 69.1 °F 47% 30.04 in 10.0 mi SSE 6.9 mph - N/A   Scattered Clouds
3:56 PM 97.0 °F 102.2 °F 68.0 °F 39% 30.01 in 10.0 mi West 3.5 mph - N/A   Scattered Clouds
4:56 PM 97.0 °F 100.4 °F 66.0 °F 36% 29.98 in 10.0 mi Variable 3.5 mph - N/A   Mostly Cloudy
5:56 PM 93.9 °F 98.6 °F 68.0 °F 43% 29.98 in 10.0 mi ESE 4.6 mph - N/A   Mostly Cloudy
6:56 PM 91.9 °F 95.9 °F 68.0 °F 45% 29.98 in 10.0 mi East 5.8 mph - N/A   Mostly Cloudy
7:52 PM 86.0 °F 89.4 °F 68.0 °F 55% 30.03 in 10.0 mi SE 4.6 mph - N/A Thunderstorm Thunderstorm
7:56 PM 86.0 °F 89.4 °F 68.0 °F 55% 30.02 in 10.0 mi SE 4.6 mph - N/A Thunderstorm Thunderstorm
8:45 PM 75.2 °F - 69.8 °F 83% 30.10 in 3.0 mi East 11.5 mph 21.9 mph 0.17 in Rain , Thunderstorm Heavy Thunderstorms and Rain
8:56 PM 75.0 °F - 71.1 °F 87% 30.10 in 7.0 mi SSE 11.5 mph - 0.38 in Rain , Thunderstorm Light Thunderstorms and Rain
9:56 PM 75.0 °F - 72.0 °F 90% 30.08 in 7.0 mi South 10.4 mph - 0.11 in Rain , Thunderstorm Light Thunderstorms and Rain
10:50 PM 75.2 °F - 71.6 °F 89% 30.09 in 7.0 mi SSE 4.6 mph - 0.04 in Rain Light Rain
10:56 PM 73.9 °F - 72.0 °F 93% 30.08 in 7.0 mi SSE 3.5 mph - 0.04 in Rain Light Rain
11:56 PM 73.9 °F - 72.0 °F 93% 30.04 in 10.0 mi South 3.5 mph - 0.00 in   Overcast